This is the latest recevied weather packets stored in our database for station/object SQ6PCH-10. If no packets are shown the sender has not sent any weather packets the latest 10 day(s).
| Time | Temp. | Humidity | Pressure | Rain* | Wind** | Luminosity | Snow |
|---|---|---|---|---|---|---|---|
| 1777877921 | 19.44° C | 38% | 998.8 hPa | - | - | - | - |
| 1777877321 | 18.89° C | 38% | 998.9 hPa | - | - | - | - |
| 1777876721 | 18.89° C | 39% | 998.8 hPa | - | - | - | - |
| 1777876121 | 18.33° C | 39% | 998.8 hPa | - | - | - | - |
| 1777875521 | 17.78° C | 40% | 998.8 hPa | - | - | - | - |
| 1777874921 | 17.22° C | 42% | 998.7 hPa | - | - | - | - |
| 1777874320 | 15.56° C | 45% | 998.7 hPa | - | - | - | - |
| 1777873720 | 14.44° C | 46% | 998.7 hPa | - | - | - | - |
| 1777873120 | 13.33° C | 49% | 998.6 hPa | - | - | - | - |
| 1777872520 | 13.33° C | 50% | 998.6 hPa | - | - | - | - |
| 1777871920 | 12.78° C | 49% | 998.7 hPa | - | - | - | - |
| 1777871320 | 13.33° C | 49% | 998.6 hPa | - | - | - | - |
| 1777870719 | 13.33° C | 50% | 998.6 hPa | - | - | - | - |
| 1777870119 | 12.78° C | 49% | 998.4 hPa | - | - | - | - |
| 1777869519 | 12.78° C | 49% | 998.4 hPa | - | - | - | - |
| 1777868919 | 12.78° C | 49% | 998.4 hPa | - | - | - | - |
| 1777868319 | 12.22° C | 50% | 998.4 hPa | - | - | - | - |
| 1777867719 | 11.67° C | 52% | 998.5 hPa | - | - | - | - |
| 1777867118 | 11.67° C | 52% | 998.6 hPa | - | - | - | - |
| 1777866518 | 11.11° C | 55% | 998.5 hPa | - | - | - | - |
| 1777865918 | 11.11° C | 54% | 998.4 hPa | - | - | - | - |
| 1777865318 | 11.67° C | 51% | 998.3 hPa | - | - | - | - |
| 1777864718 | 11.67° C | 51% | 998.1 hPa | - | - | - | - |
| 1777864117 | 12.22° C | 49% | 998.1 hPa | - | - | - | - |
| 1777863517 | 12.22° C | 50% | 997.7 hPa | - | - | - | - |
* Rain since midnight (hover to see other rain measurements)
** Current wind speed in m/s (hover to see current wind gust speed)